Погода в Фомкино

Россия / Республика Татарстан     54°24′48″N   50°29′30″E
темп.,
°C
ветер,
м/с
пор.,
м/с
влажн.,
%
обл.,
%
осадки,
мм/ч
давл.,
гПа
погр.,
м
19 сентября, вс
вс1900:00+3зсз23796 0.0 102366
03:00+1сз36905 0.0 1024111
06:00+1сз3792100 0.0 1024181
09:00+6сз4560100 0.0 1025762
12:00+10сз454512 0.0 10251201
15:00+10ссз444210 0.0 10241318
18:00+6сз336185 0.0 102528
21:00+4ссз2265100 0.0 102511
20 сентября, пн
пн2000:00+3с227199 0.0 102611
03:00+2св337846 0.0 102632
06:00+2всв3776100 0.0 1027176
09:00+7всв4454100 0.0 1027551
12:00+10в4445100 0.0 1027950
15:00+11всв4441100 0.0 10261091
18:00+7всв4854100 0.0 1026146
21:00+5всв41057100 0.0 1027253
21 сентября, вт
вт2100:00+5в41056100 0.0 1026277
03:00+5в41055100 0.0 1026291
06:00+6в4955100 0.0 1026299
09:00+9вюв5745100 0.0 1025521
12:00+9вюв5948100 0.0 1023572
15:00+9в61156100 0.0 1022477
18:00+9вюв51155100 0.0 1021480
21:00+9в51055100 0.0 1020363
22 сентября, ср
ср2200:00+9в51153100 0.0 1018328
03:00+9в51255100 0.0 1017361
06:00+10вюв61255100 0.0 1017378
09:00+13юв61245100 0.0 1016623
12:00+12вюв61257100 0.3 1016434
15:00+15юв61249100 0.3 1017845
18:00+13юв71448100 0.0 1018496
21:00+12юв51060100 0.3 1020470
23 сентября, чт
чт2300:00+11юв61376100 0.0 1020478
03:00+11вюв51260100 0.0 1020389
06:00+10вюв5135897 0.0 1020392
09:00+10ююв61271100 0.8 1022479
12:00+10ююв41083100 2.3 1023352
15:00+12ююв3789100 3.4 1023485
18:00+12юв41275100 0.4 1024539
21:00+11ююв5966100 0.6 1024264